Location: Kellogg
(38.0159°N, 90.0546°W)
Time: 19:52:46
(UTC+00:00)

S-56A Canister/Altair - Pass Details

Date: 14 September 2024
Orbit: 636 x 2487 km, 38.9° (Epoch: 04 October)

Event Time Altitude Azimuth Distance (km) Brightness Sun altitude
Rises 23:49:07 0° 228° (SW) 3,053 11.4 3.0°
Reaches altitude 10° 23:51:18 10° 221° (SW) 2,245 10.6 2.6°
Maximum altitude 23:56:12 45° 149° (SSE) 1,205 8.4 1.6°
Drops below altitude 10° 00:03:03 10° 79° (E) 3,135 10.0 0.3°
Sets 00:06:36 0° 74° (ENE) 4,415 10.8 -0.4°
